This demonstration page uses our WeatherBlox Daily Observations layout. Learn more.

36.17497, -115.13722

Hourly Observations for March 27, 2018

Temp ( °F °C ) Dew Point ( °F °C ) Humidity (%) Winds ( mph kmh ) Pressure ( in mb ) Visibility ( mi km ) Precip ( " mm )
12:53 am 00:53 Clear 54 12.2 10 -12.2 17 17 N 20 31 30.12 1020 10 16.0934 0 0
1:53 am 01:53 Clear 53 11.7 11 -11.7 18 18 N 17 28 30.13 1020 10 16.0934 0 0
2:53 am 02:53 Clear 51 10.6 13 -10.6 22 22 N 14 22 30.13 1020 10 16.0934 0 0
3:53 am 03:53 Clear 51 10.6 13 -10.6 22 22 N 20 31 30.14 1021 10 16.0934 0 0
4:53 am 04:53 Clear 50 10 13 -10.6 22 22 N 20 31 30.15 1021 10 16.0934 0 0
5:53 am 05:53 Clear 50 10 14 -10 24 24 NNW 21 33 30.17 1022 10 16.0934 0 0
6:53 am 06:53 Sunny 49 9.4 14 -10 25 25 NNW 18 30 30.19 1023 10 16.0934 0 0
7:53 am 07:53 Sunny 51 10.6 14 -10 23 23 NNW 20 31 30.21 1023 10 16.0934 0 0
8:53 am 08:53 Sunny 54 12.2 14 -10 20 20 N 24 39 30.22 1023 10 16.0934 0 0
9:53 am 09:53 Sunny 56 13.3 13 -10.6 18 18 N 23 37 30.22 1024 10 16.0934 0 0
10:53 am 10:53 Sunny 59 15 13 -10.6 16 16 NNW 18 30 30.22 1023 10 16.0934 0 0
11:53 am 11:53 Sunny 62 16.7 12 -11.1 14 14 NNW 20 31 30.19 1023 10 16.0934 0 0
12:53 pm 12:53 Sunny 63 17.2 9 -12.8 12 12 N 15 24 30.17 1022 10 16.0934 0 0
1:53 pm 13:53 Sunny 65 18.3 9 -12.8 11 11 NW 25 41 30.14 1021 10 16.0934 0 0
2:53 pm 14:53 Sunny 66 18.9 8 -13.3 10 10 NW 16 26 30.11 1020 10 16.0934 0 0
3:53 pm 15:53 Sunny 69 20.6 7 -13.9 9 9 NNW 20 31 30.09 1019 10 16.0934 0 0
4:53 pm 16:53 Sunny 69 20.6 8 -13.3 9 9 NNW 12 19 30.08 1019 10 16.0934 0 0
5:53 pm 17:53 Sunny 68 20 8 -13.3 9 9 NNW 6 9 30.09 1019 10 16.0934 0 0
6:53 pm 18:53 Sunny 67 19.4 9 -12.8 10 10 ENE 6 9 30.09 1019 10 16.0934 0 0
7:53 pm 19:53 Clear 63 17.2 11 -11.7 13 13 WNW 6 9 30.1 1019 10 16.0934 0 0
8:53 pm 20:53 Clear 63 17.2 13 -10.6 14 14 N 7 11 30.11 1020 10 16.0934 0 0
9:53 pm 21:53 Clear 61 16.1 12 -11.1 14 14 E 12 19 30.14 1021 10 16.0934 0 0
10:53 pm 22:53 Clear 60 15.6 13 -10.6 16 16 ENE 5 7 30.14 1021 10 16.0934 0 0
11:53 pm 23:53 Clear 57 13.9 14 -10 18 18 Calm 30.14 1021 10 16.0934 0 0

Powered by AerisWeather